Home > Weather > Wagga Wagga > Past weeks

Flag for Australia Past Weather in Wagga Wagga, New South Wales, Australia — Yesterday and Last 2 Weeks

Now
45 °F

Overcast.


Feels Like: 45 °F
Forecast: 44 / 51 °F
Wind: 1 mph from Northeast

Location: Wagga Airport

Current Time: Jul 24, 2016 at 8:52:01 PM

Latest Report: Jul 24, 2016 at 8:00 PM


Visibility: N/A

Pressure: 29.83 "Hg

Humidity: 93%

Dew Point: 43 °F

Location of Wagga WaggaLocation

Past Weather in Wagga Wagga — Graph

°F

Wagga Wagga Temperature Yesterday

Maximum temperature yesterday: 52 °F (at 12:00 AM)
Minimum temperature yesterday: 39 °F (at 10:00 PM)
Average temperature yesterday: 47 °F

High & Low Weather Summary for the Past Weeks

 TemperatureHumidityPressure
High66 °F (Jul 22, 1:00 PM)100% (Jul 10, 2:00 AM)30.51 "Hg (Jul 10, 2:00 AM)
Low30 °F (Jul 14, 8:00 AM)42% (Jul 11, 3:00 PM)29.50 "Hg (Jul 22, 2:56 PM)
Average49 °F83%30.09 "Hg
* Reported Jul 9 8:00 PM — Jul 24 8:00 PM, Wagga Wagga, Weather by CustomWeather, © 2016

Note: Actual official high and low records may vary slightly from our data, if they occured in-between our weather recording intervals... More about our weather records

Advertising

Wagga Wagga Weather History for the Previous 24 Hours

Scroll right to see more
 ConditionsComfort  
Time TempWeatherWind HumidityBarometerVisibility
8:00 PM
Sun, Jul 24
45 °FOvercast.1 mph93%29.83 "HgN/A
7:00 PM43 °FPassing clouds.3 mph93%29.83 "HgN/A
6:05 PM45 °FPassing clouds.10 mph93%29.83 "HgN/A
6:00 PM45 °FPartly cloudy.10 mph93%29.83 "Hg2 mi
5:00 PM46 °FPartly cloudy.9 mph87%29.80 "HgN/A
4:00 PM46 °FMostly cloudy.5 mph87%29.83 "HgN/A
3:00 PM46 °FBroken clouds.10 mph82%29.86 "Hg4 mi
2:00 PM50 °FMore clouds than sun.10 mph67%29.86 "HgN/A
1:00 PM48 °FMostly cloudy.9 mph62%29.92 "HgN/A
12:00 PM46 °FOvercast.9 mph71%29.92 "HgN/A
11:00 AM43 °FOvercast.8 mph76%29.98 "HgN/A
10:00 AM41 °FOvercast.6 mph81%30.01 "HgN/A
9:00 AM39 °FSunny.1 mph81%29.98 "HgN/A
8:00 AM34 °FScattered clouds.No wind93%29.98 "HgN/A
7:00 AM30 °FSunny.No windN/A29.98 "HgN/A
6:00 AM32 °FClear.1 mphN/A29.95 "HgN/A
5:00 AM32 °FClear.6 mphN/A29.95 "HgN/A
4:00 AM32 °FClear.No windN/A29.98 "HgN/A
3:00 AM34 °FClear.No wind93%29.95 "HgN/A
2:00 AM34 °FClear.No wind93%29.95 "HgN/A
1:00 AM36 °FClear.3 mph93%29.98 "HgN/A
12:00 AM36 °FClear.No wind93%29.98 "HgN/A
11:00 PM
Sat, Jul 23
39 °FClear.5 mph81%29.98 "HgN/A
10:00 PM39 °FClear.5 mph81%29.98 "HgN/A
9:00 PM41 °FClear.8 mph76%29.98 "HgN/A
8:00 PM43 °FClear.8 mph71%29.95 "HgN/A
Weather by CustomWeather, © 2016

See weather overviewHow to use our weather pages